Location: Bagnolo San Vito
(45.0833°N, 10.8833°E)
Time: 22:38:13
(UTC+00:00)

Cosmos 2333 Rocket - Pass Details

Date: 03 March 2021
Orbit: 837 x 864 km, 70.8° (Epoch: 17 April)

Event Time Altitude Azimuth Distance (km) Brightness Sun altitude
Rises 20:31:17 0° 239° (WSW) 3,395 5.7 -35.6°
Reaches altitude 10° 20:34:04 10° 251° (WSW) 2,468 5.0 -36.0°
Maximum altitude 20:38:54 28° 309° (NW) 1,541 4.0 -36.8°
Drops below altitude 10° 20:43:48 10° 8° (N) 2,495 4.9 -37.5°
Sets 20:46:38 0° 20° (NNE) 3,440 5.5 -37.9°
